|
2022 XC1 |
| ephemeris |
date |
magn |
radius |
delta |
ra |
dec |
elong |
phase |
| Today | 5 Sep 2026 | 28.6 | 1.046 AU | 1.219 AU | 14h18m | -14°11' | 55.0° | 52.2° |
2022 XC1 - 2026-09-05
astro.vanbuitenen.nl
The interactive orbit chart above shows the body's path through the solar system and its position at the given date.
Green and blue lines are shown perpendicular to the ecliptic plane: Green if the path is above the ecliptic plane, blue if it is below.
(Left-click and drag to rotate the view; Right-click and drag to move the view; Use scroll wheel to zoom in our out.)
The orbital elements of 2022 XC1 are:
e (Eccentricity) : 0.2515572
a (Semimajor axis) : 1.0701467
i (Inclination) : 4.08683
Ω (Longitude of ascending node) : 274.36861
ω (Argument of perihelion) : 255.40301
M (Mean anomaly) : 352.15275
Epoch : 2026 Jun 09
L (Longitude of perihelion) : 349.73600
B (Latitude of perihelion) : -3.95470
P (Orbital period in years) : 1.11
The light curve chart below shows the estimated development of the minor planet's magnitude.
The all-sky chart below shows the path of the minor planet over the same period as the light curve. The current position is marked yellow.
The following chart shows the path of the minor planet in the next few days. The field of view is optimized for (~10x50) binoculars and finderscopes.
Ephemerides:
Date Time RA (2000) DEC (2000) delta radius elong phase PA magn
2026-09-05 00:00 UT 14 18 42.4 -14 11 04 1.219 1.046 55.0 52.2 109 28.6
2026-09-05 20:07 UT 14 22 21.7 -14 26 27 1.222 1.050 55.1 52.0 109 28.6
2026-09-06 00:00 UT 14 23 04.0 -14 29 23 1.223 1.050 55.2 52.0 109 28.6
2026-09-07 00:00 UT 14 27 25.0 -14 47 19 1.226 1.055 55.3 51.8 109 28.6
2026-09-08 00:00 UT 14 31 45.6 -15 04 52 1.230 1.059 55.4 51.6 108 28.6
2026-09-09 00:00 UT 14 36 05.6 -15 22 02 1.234 1.063 55.5 51.4 108 28.7
2026-09-10 00:00 UT 14 40 25.1 -15 38 48 1.238 1.067 55.6 51.2 108 28.7
2026-09-11 00:00 UT 14 44 44.0 -15 55 11 1.242 1.071 55.7 50.9 107 28.7
2026-09-12 00:00 UT 14 49 02.4 -16 11 11 1.246 1.076 55.8 50.7 107 28.7
Terminology:
delta: distance between minor planet and earth in AU
radius: distance between minor planet and sun in AU
magn: magnitude (brightness) estimate
ra: right ascension in hours (24h = 360deg)
dec: declination in degrees
elong: elongation in degrees (angle sun-earth-minor planet)
phase: phase angle in degrees (angle sun-minor planet-earth)
AU: Astronomical Unit (mean distance between earth and sun: 149597870.7 km
Orbital elements provided by the MPC (Minor Planet Center).
Calculations by a modified version of AAPlus, a C# implementation of the AA+ project by PJ Naughter from the algorithms presented in the book "Astronomical Algorithms" by Jean Meeus.
NGC2000 dso catalog and star labels from VizieR as provided by the Strasbourg astronomical Data Center.
Tycho2 catalog from the ESO archive.